Regional Weather Roundup
Issued by NWS

Home | Current Version | Previous Version | Text Only | Print | Product List | Glossary On
Versions: 1 2 3 4 5 6 7 8 9 10 11 12 13 14 15 16 17 18 19 20 21 22 23 24 25 26 27 28 29 30 31 32 33 34 35 36 37 38 39 40 41 42 43 44 45 46 47 48 49 50
000
ASUS43 KLOT 182206
RWRIL

ILLINOIS REGIONAL WEATHER ROUNDUP
NATIONAL WEATHER SERVICE CHICAGO/ROMEOVILLE IL
500 PM CDT FRI APR 18 2014

NOTE: "FAIR" INDICATES FEW OR NO CLOUDS BELOW 12,000 FEET WITH NO
SIGNIFICANT WEATHER AND/OR OBSTRUCTIONS TO VISIBILITY.

* THESE STATIONS ARE NOT UNDER NWS QUALITY CONTROL. THEY ALSO MAY NOT
  REPORT WEATHER SUCH AS PRECIPITATION OR FOG.

ILZ001-002-007-009-015-016-024-182300-
NORTHWEST ILLINOIS

CITY           SKY/WX    TMP DP  RH WIND       PRES   REMARKS
MOLINE         SUNNY     63  28  26 N6        30.27F
STERLING*      SUNNY     63  32  31 CALM      30.28F
SAVANNA*       SUNNY     61  29  30 NW5       30.29F
$$

ILZ003-004-008-010-011-017-018-182300-
NORTH CENTRAL ILLINOIS

CITY           SKY/WX    TMP DP  RH WIND       PRES   REMARKS
ROCKFORD       MOSUNNY   60  28  29 NE5       30.31S
FREEPORT*      SUNNY     59  28  30 NE5       30.33S
ROCHELLE*      SUNNY     63  29  27 N7        30.30S
DE KALB*       SUNNY     58  29  33 NW5       30.30S
$$

ILZ005-006-012>014-019>023-182300-
NORTHEAST ILLINOIS

CITY           SKY/WX    TMP DP  RH WIND       PRES   REMARKS
CHICAGO-OHARE  MOSUNNY   49  31  49 NE10      30.33S
CHICAGO-MIDWAY MOSUNNY   47  34  60 E12       30.33S
AURORA         SUNNY     62  32  32 CALM      30.29R
LANSING*       SUNNY     44  33  64 NE16      30.33S
WAUKEGAN       SUNNY     41  31  67 NE12      30.36R
DUPAGE AIRPORT SUNNY     55  36  48 E14       30.30R
KANKAKEE*      SUNNY     60  41  49 NE14      30.29S
WHEELING       SUNNY     44  32  62 NE10      30.37R
MORRIS*        SUNNY     65  24  21 E5        30.27S
NORTHERLY ISL    N/A     41  33  73 N12         N/A
$$

LMZ740>746-182300-
SOUTHERN LAKE MICHIGAN

STATION/POSITION SKY/WX   TEMP    WIND        PRES    VSBY  WAVE
                          AIR SEA DIR/SP/G                  HT/PER
                          (F)     (DEG/KT/KT) (MB)    (MI)  (FT/S)
WAUKEGAN HARBOR            36      50/ 13/ 15 1029.1S
HARRISON CRIB              37      40/ 12/ 13   N/A
BURNHAM HARBOR             41      10/ 11/ 12   N/A
CALUMET HARBOR             39      30/ 12/ 14 1028.2F
MICHIGAN CITY              37      10/ 15/ 17   N/A
$$

ILZ025>027-034>036-040-047-049-050-058-095>099-182300-
WEST-CENTRAL ILLINOIS

CITY           SKY/WX    TMP DP  RH WIND       PRES   REMARKS
QUINCY         SUNNY     66  33  29 CALM      30.23F
GALESBURG*     SUNNY     64  33  31 N3        30.26F
MACOMB*        SUNNY     64  30  27 CALM      30.27F
JACKSONVILLE*  SUNNY     67  32  27 CALM      30.24F
PITTSFIELD*    SUNNY     68  33  27 CALM      30.24F
$$

ILZ028>032-037-038-041>044-048-051>054-059>061-182300-
CENTRAL ILLINOIS

CITY           SKY/WX    TMP DP  RH WIND       PRES   REMARKS
PONTIAC        SUNNY     66  27  22 CALM      30.26S
BLOOMINGTON    SUNNY     65  25  22 NE8       30.26F
DECATUR        SUNNY     68  36  30 N5        30.24F
PEORIA         SUNNY     65  29  25 CALM      30.26F
LACON*         SUNNY     63  32  30 NW5       30.26F
LINCOLN*       SUNNY     69  29  22 CALM      30.23F
SPRINGFIELD    SUNNY     69  30  23 E3        30.24F
TAYLORVILLE    SUNNY     66  36  32 NW5       30.24F
$$

ILZ033-039-045-046-055>057-062-063-182300-
EAST-CENTRAL ILLINOIS

CITY           SKY/WX    TMP DP  RH WIND       PRES   REMARKS
CHAMPAIGN      SUNNY     67  31  26 NW6       30.25F
RANTOUL*       SUNNY     68  27  21 CALM      30.26S
MATTOON        SUNNY     68  41  37 NW10      30.23F
PARIS*         SUNNY     68  37  31 CALM      30.24F
$$

ILZ079-100>102-182300-
SOUTHWEST ILLINOIS

CITY           SKY/WX    TMP DP  RH WIND       PRES   REMARKS
BELLEVILLE     SUNNY     70  45  40 VRB5      30.22F
CAHOKIA*       SUNNY     70  43  37 N7        30.22F
SPARTA*        SUNNY     68  45  42 NE8       30.23F
$$

ILZ064>066-069>071-074>076-080>082-084>086-088>090-092>094-182300-
SOUTH-CENTRAL ILLINOIS

CITY           SKY/WX    TMP DP  RH WIND       PRES   REMARKS
CARBONDALE     PTSUNNY   71  42  35 NE8       30.21F
CAIRO*         SUNNY     76  40  27 NE7       30.18F
MARION         MOSUNNY   72  39  30 N12       30.21F
MT. VERNON     SUNNY     70  39  32 W5        30.22F
CENTRALIA*       N/A     69  39  34 CALM      30.22F
SALEM*         MOSUNNY   70  46  42 N7        30.23F
METROPOLIS*    CLOUDY    72  34  24 N6        30.17F
$$

ILZ067-068-072-073-078-083-087-091-182300-
SOUTHEAST ILLINOIS

CITY           SKY/WX    TMP DP  RH WIND       PRES   REMARKS
FAIRFIELD*     MOSUNNY   72  45  37 NW9       30.21F
HARRISBURG*    PTSUNNY   69  42  38 N8        30.21F
ROBINSON*      SUNNY     72  41  33 CALM      30.22F
CARMI*         CLOUDY    71  47  42 N6        30.21F
$$

ABBREVIATIONS USED IN REMARKS
   TC - TEMPERATURE IN CELSIUS
  WCI - WIND CHILL INDEX
   HX - HEAT INDEX
  VSB - VISIBILITY
$$




USA.gov is the U.S. government's official web portal to all federal, state and local government web resources and services.